Showing default

CHINASAT 18, 44493

Orbit data source: Space-Track

CHINASAT 18, 44493 is a payload satellite owned by PLA SSF (CN) in HEO that was launched on Mon, 19 Aug 2019 UTC via a CHANG ZHENG 3B launch vehicle from the Xichang Space Center, China (XSC). Payloads include a variety of satellites, spacecraft, and rockets equipped with specific instruments for various scientific and technological missions. These include communications satellites like Starlink; space stations such as the ISS; scientific satellites like the Hubble; Earth observation satellites from companies like Planet Labs, Umbra, and HawkEye 360; GPS; miniature CubeSats for education and research; and military/defense satellites.

Loading next visibility...
CHINASAT 18 details
Identifier
44493, 2019-053A
Orbit
HEO
Last TLE update13 hours ago
Origin
Flag of CNPLA SSF (CN / PRC)
ManufacturerCAST
MissionNon-operational Civil Communications
Bus & MotorDFH-4, DFH-4 LAE
Mass~5,250 kg wet, ~2,500 kg dry
Launch date (UTC)
2019-08-19 (5 years ago)
Launch vehicle
CHANG ZHENG 3B
Launch site
Xichang Space Center, China (XSC)
Object type
Payload
Rocket body
Debris
Shape & HBRBox + 2 Pan, 30 m
Radar Cross Section34.063 m², Large (>1 m²)

Expand to show TLE details & history

TLE from 13 hours ago
0 CHINASAT 18
1 44493U 19053A   24361.22921141  .00025438 -21225-6  37725-3 0  9998
2 44493  28.5824   2.8330 6638227 139.8768 295.4386  3.19744994 51044
Epoch: 2024-12-26T05:30Z
Definitive object data (Epoch: 2024-12-26T05:30:03.865Z)
Latitude-0°
Longitude-174.88851°
Altitude15,699.109 km
Speed3.953 km/s
True Right ascension00h 11m 21s
True Declination0° 00' 00"
Sunlit
Object was in daylight at TLE epoch
Visualization TLE readout
Latitude-15.74503°
Longitude153.6722°
Altitude25,739.231 km
Speed2.084 km/s
Apparent Right ascension22h 40m 15s
Apparent Declination-23° 44' 43"
Sunlit
Object is in daylight
Visualization observer readout
Local Sidereal Time17:52:37
Azimuth119.45° SE
Elevation-2.312°
Doppler factor1
Orbital elements
Apogee altitude26,009.996 km
Perigee altitude165.923 km
Semi-major axis19,466.097 km
Eccentricity0.6638227
Inclination28.5824°
RAAN2.833°
Arg. of periapsis139.8768°
True anomaly220.13916°
Mean anomaly295.4386°
Eccentric anomaly258.20715°
Mean motion0.79914 °/min
BSTAR0.00037725
Orbital period450.48 mins
Loading maneuver chart data...
Loading historical data...
Loading historical data...
Loading historical data...
Loading historical data...
Loading historical data...
Loading historical data...
Loading historical data...
Other satellites on launch #53 in the year 2019 (2019-08-19 UTC)

CHINASAT 18 Visibility forecast

Observer location: undefined°, undefined

Span
Click to sort rows by Start time (UTC) header in descending order
Start Az.
Max El. time (UTC)
Max El. Az.
Max El.
End time (UTC)
End Az.
113 mins2024-12-27 03:18:07.111Z237.614° WSW2024-12-27 05:03:07.111Z188.989° SSW37.151°2024-12-27 05:11:07.111Z112.069° ESE
|